This is the latest recevied weather packets stored in our database for station/object DB0RES-5. If no packets are shown the sender has not sent any weather packets the latest 10 day(s).
| Time | Temp. | Humidity | Pressure | Rain* | Wind** | Luminosity | Snow |
|---|---|---|---|---|---|---|---|
| 1777644355 | 22.78° C | 29% | 1024.7 hPa | 0 mm | - | - | - |
| 1777643753 | 22.78° C | 29% | 1024.8 hPa | 0 mm | - | - | - |
| 1777643150 | 22.22° C | 30% | 1025.1 hPa | 0 mm | - | - | - |
| 1777642548 | 22.78° C | 29% | 1025.2 hPa | 0 mm | - | - | - |
| 1777641945 | 22.22° C | 29% | 1025.3 hPa | 0 mm | - | - | - |
| 1777641343 | 22.22° C | 29% | 1025.4 hPa | 0 mm | - | - | - |
| 1777640740 | 22.22° C | 30% | 1025.5 hPa | 0 mm | - | - | - |
| 1777640137 | 22.22° C | 29% | 1025.5 hPa | 0 mm | - | - | - |
| 1777639535 | 21.67° C | 30% | 1025.7 hPa | 0 mm | - | - | - |
| 1777638932 | 21.67° C | 31% | 1025.8 hPa | 0 mm | - | - | - |
| 1777638330 | 21.67° C | 30% | 1025.9 hPa | 0 mm | - | - | - |
| 1777637727 | 21.11° C | 31% | 1026 hPa | 0 mm | - | - | - |
| 1777637125 | 20.56° C | 31% | 1026.2 hPa | 0 mm | - | - | - |
| 1777636522 | 20.56° C | 32% | 1026.3 hPa | 0 mm | - | - | - |
| 1777635920 | 20.56° C | 32% | 1026.5 hPa | 0 mm | - | - | - |
| 1777635317 | 20° C | 32% | 1026.6 hPa | 0 mm | - | - | - |
| 1777634775 | 20° C | 32% | 1026.7 hPa | 0 mm | - | - | - |
| 1777634172 | 20° C | 31% | 1026.8 hPa | 0 mm | - | - | - |
| 1777633569 | 20° C | 33% | 1026.9 hPa | 0 mm | - | - | - |
| 1777632967 | 19.44° C | 32% | 1027 hPa | 0 mm | - | - | - |
| 1777632364 | 19.44° C | 34% | 1027.1 hPa | 0 mm | - | - | - |
| 1777631762 | 19.44° C | 33% | 1027.2 hPa | 0 mm | - | - | - |
| 1777631159 | 18.89° C | 34% | 1027.1 hPa | 0 mm | - | - | - |
| 1777630557 | 18.89° C | 35% | 1027.2 hPa | 0 mm | - | - | - |
| 1777629954 | 18.33° C | 35% | 1027.5 hPa | 0 mm | - | - | - |
* Rain latest hour (hover to see other rain measurements)
** Current wind speed in m/s (hover to see current wind gust speed)